Location: Bourg-d�Oueil
(42.8588°N, 0.4991°E)
Time: 20:08:34
(UTC+00:00)

Cosmos 1953 - Pass Details

Date: 16 June 2021
Orbit: 537 x 557 km, 82.5° (Epoch: 02 August)

Event Time Altitude Azimuth Distance (km) Brightness Sun altitude
Rises 21:07:01 0° 356° (N) 2,751 6.8 -12.9°
Reaches altitude 10° 21:09:15 10° 1° (N) 1,852 5.7 -13.1°
Maximum altitude 21:13:14 52° 79° (E) 695 2.6 -13.6°
Enters shadow 21:15:31 23° 147° (SSE) 1,199 3.4 -13.8°
